Regional Weather Roundup
Issued by NWS San Diego, CA

Home | Current Version | Previous Version | Text Only | Print | Product List | Glossary On
Versions: 1 2 3 4 5 6 7 8 9 10 11 12 13 14 15 16 17 18 19 20 21 22 23 24 25 26 27 28 29 30 31 32 33 34 35 36 37 38 39 40 41 42 43 44 45 46 47 48 49 50
000
ASUS46 KSGX 191310
RWRSGX

SAN DIEGO HOURLY WEATHER ROUNDUP
NATIONAL WEATHER SERVICE SAN DIEGO CA
600 AM PDT FRI SEP 19 2014

NOTE: "FAIR" INDICATES FEW OR NO CLOUDS BELOW 12,000 FEET WITH NO
SIGNIFICANT WEATHER AND/OR OBSTRUCTIONS TO VISIBILITY.

CAZ042-043-060-061-PZZ750-775-191400-

GREATER SAN DIEGO AREA

CITY           SKY/WX    TMP DP  RH WIND       PRES   REMARKS
LINDBERGH FLD  CLOUDY    70  66  87 NW8       29.89R FOG
POINT LOMA       N/A     66  64  93 NW12        N/A
NATIONAL CITY    N/A     71  67  87 NW5       29.88R
CHULA VISTA      N/A     69  68  94 W7        29.81R
IMPERIAL BEACH CLOUDY    70  67  90 W9        29.88R
BROWN FIELD    LGT RAIN  68  66  93 W7        29.89R
MIRAMAR MCAS   MOCLDY    70  62  76 NW3       29.88R
MONTGOMERY FLD CLOUDY    71  63  75 NW5       29.88R

$$

NORTH SAN DIEGO COUNTY

CITY           SKY/WX    TMP DP  RH WIND       PRES   REMARKS
CAMP PENDLETON CLOUDY    71  61  70 CALM      29.87R
OCEANSIDE AP   CLOUDY    72  64  76 CALM      29.86S
OCEANSIDE HBR    N/A     70  65  83 N2        29.89S
VISTA            N/A     69  63  83 CALM      29.85S
CARLSBAD       CLOUDY    71  62  73 CALM      29.87R
DEL MAR          N/A     68  65  90 CALM      29.90R
LA JOLLA SCRIP   N/A     68  66  93 SW2       29.85R
FALLBROOK        N/A     68  68  99 CALM      29.88R
ESCONDIDO        N/A     69  64  83 NW2       29.89R
SAN MARCOS       N/A     68  63  85 CALM      29.85R
POWAY            N/A     69  64  82 CALM      29.88R

$$

EAST SAN DIEGO COUNTY

CITY           SKY/WX    TMP DP  RH WIND       PRES   REMARKS
RAMONA         CLOUDY    65  62  90 NW6       29.90S
SANTEE LAKES     N/A     70  64  82 CALM      29.88S
LA MESA          N/A     70  65  84 CALM      29.81R
JAMUL            N/A     67  64  90 CALM      29.86R
DESCANSO N       N/A     54  51  90 CALM      29.76R
MT. LAGUNA OBS   N/A     53  49  87 NW9       29.65R
CAMPO            N/A     61  59  93 SW5       29.90R

$$

ORANGE COUNTY AND THE LOS ANGELES BASIN

CITY           SKY/WX    TMP DP  RH WIND       PRES   REMARKS
JOHN WAYNE AP  CLOUDY    73  63  70 CALM      29.87S
LAGUNA BEACH     N/A    N/A  18   0 CALM      29.83S
LAKE FOREST FR   N/A     66  61  83 CALM      29.77S
SANTA ANA        N/A     70  66  88 CALM      29.83S
HUNTINGTON BCH   N/A     69  65  88 CALM      29.90R
LOS ALAMITOS   CLOUDY    69  64  83 CALM      29.88R
FULLERTON      CLOUDY    70  63  78 CALM      29.87S
LONG BEACH     CLOUDY    70  64  81 CALM      29.88R
L.A. AP        MOCLDY    69  61  75 CALM      29.88S
L.A. DOWNTOWN  CLOUDY    69  62  78 CALM      29.87S

$$

THE INLAND EMPIRE

CITY           SKY/WX    TMP DP  RH WIND       PRES   REMARKS
CORONA         MOCLDY    67  62  84 CALM      29.89S
CHINO          CLOUDY    68  61  78 NW6       29.90S
ONTARIO        CLOUDY    69  60  73 NW5       29.89S
RIVERSIDE AP   MOCLDY    68  61  78 W3        29.89S
RIV CYN CREST    N/A     67  67  99 W1        29.87S
MORENO VALLEY    N/A     66  64  93 CALM      29.07S
MARCH ARB      CLOUDY    67  62  82 S3        29.91R
HORSETHIEF CYN   N/A     65  58  78 NW3       29.88S
PERRIS           N/A     66  62  86 SW2       29.88R
MENIFEE          N/A     67  64  87 S2        29.95S
HEMET EAST       N/A     64  60  87 CALM      29.86R
FRENCH VALLEY  CLOUDY    64  63  94 CALM      29.91S
TEMECULA         N/A     67  64  90 SW1       29.87S

$$

SAN BERNARDINO AND RIVERSIDE COUNTY MOUNTAINS

CITY           SKY/WX    TMP DP  RH WIND       PRES   REMARKS
BIG BEAR AP    CLEAR     46  43  87 CALM      30.09S
ANGELUS OAKS     N/A     51  45  80 CALM      29.71R
PINE COVE        N/A     52  48  87 N3        29.68S

$$

SOUTHERN DESERT INCLUDING THE COACHELLA VALLEY

CITY           SKY/WX    TMP DP  RH WIND       PRES   REMARKS
PALM SPRINGS   CLEAR     75  60  59 S3        29.76R
THOUSAND PALMS   N/A     76  60  57 W13       29.71R
PALM DESERT      N/A     72  62  70 CALM        N/A
THERMAL        CLEAR     79  59  50 NW14G21   29.70R
BLYTHE         CLEAR     76  61  59 CALM      29.73R
IMPERIAL AP    CLEAR     77  57  50 W7        29.73R
EL CENTRO NAS  PTCLDY    79  56  45 W6        29.73R
YUMA AZ        CLEAR     79  55  43 SW5       29.74R

$$

UPPER DESERT

CITY           SKY/WX    TMP DP  RH WIND       PRES   REMARKS
VICTORVILLE AP CLEAR     61  54  77 S5        29.92S
HESPERIA         N/A     62  55  77 CALM      29.90R
APPLE VALLEY     N/A     63  55  74 SW2       30.01R
PALMDALE       CLEAR     65  53  65 SW5       29.91R
LANCASTER      CLEAR     61  54  77 W7        29.91R
EDWARDS AFB    CLEAR     63  53  69 SW10      29.88R
DAGGETT        CLEAR     70  53  54 NW13      29.85R
29 PALMS N     CLEAR     72  52  49 W10       29.91R
NEEDLES        CLEAR     82  49  31 SW10      29.74R

$$

REGIONAL REPORTS

CITY           SKY/WX    TMP DP  RH WIND       PRES   REMARKS
SANTA BARBARA  CLOUDY    63  59  87 CALM      29.86S
SANDBERG       CLEAR     58  50  75 W12       30.00R
MT. WILSON       N/A     52  48  87 MISG        N/A
LAS VEGAS NV   CLEAR     76  48  37 SW5       29.79R
PHOENIX AZ     MOCLDY    82  71  69 SE5       29.78R
TIJUANA        CLOUDY    68  63  83 W8        29.91

$$

OFFSHORE ISLANDS

CITY           SKY/WX    TMP DP  RH WIND       PRES   REMARKS
CATALINA ARPT  CLOUDY    61  57  87 SW7       29.92R
SAN NICOLAS IS MOCLDY    67  54  63 W13       29.89R

$$

MARINE AND OFFSHORE BUOY REPORTS

STATION/POSITION SKY/WX   TEMP    WIND        PRES    SWELL
                          AIR SEA DIR/SP/G            HT/PER/DIR
                          (F)     (DEG/KT/KT) (MB)    (FT/S/D)
TANNER BANKS               67 70  320/ 12/ 14 1012.4R   7/240/15
S CLEMENTE BASIN           70 74  300/ 10/ 12 1011.6R   5/210/14
SAN NICOLAS IS.               68                N/A     5/280/11
SO. S. ROSA ISLA           66 69  300/ 16/ 19 1011.2R   5/11
W. S. BARBARA CH           62 58  320/  8/ 10 1011.2R   5/300/12
M. S. BARBARA CH           65 65   70/  4/  6 1011.0
S. MONICA BASIN            68 72  210/  4/  6 1010.9R   5/180/15
S PEDRO CHANNEL               72                N/A     3/170/14
DANA POINT                    70                N/A     3/200/15
CMP PENDLETON NS              71                N/A     3/220/14
OCEANSIDE OFFSHR              73                N/A     3/210/15
TORREY PINES OTR              73                N/A     3/210/14
LA JOLLA 1                 69 71  270/  5/  7 1011.8R
MISSION BAY BUOY              72                N/A     3/220/15
SAN DIEGO BAY                 76              1012.3R

$$



USA.gov is the U.S. government's official web portal to all federal, state and local government web resources and services.